TimeEST,TemperatureF,Dew PointF,Humidity,Sea Level PressureIn,VisibilityMPH,Wind Direction,Wind SpeedMPH,Gust SpeedMPH,PrecipitationIn,Events,Conditions,WindDirDegrees,DateUTC
12:51 AM,19.0,9.0,65,30.29,10.0,East,4.6,-,N/A,,Clear,100,2013-02-18 05:51:00
1:51 AM,17.1,10.0,74,30.29,10.0,East,3.5,-,N/A,,Clear,100,2013-02-18 06:51:00
2:51 AM,17.1,10.9,77,30.28,10.0,East,3.5,-,N/A,,Clear,90,2013-02-18 07:51:00
3:51 AM,16.0,10.9,81,30.28,10.0,East,3.5,-,N/A,,Clear,100,2013-02-18 08:51:00
4:51 AM,16.0,10.9,81,30.27,10.0,East,4.6,-,N/A,,Clear,90,2013-02-18 09:51:00
5:51 AM,17.1,10.0,74,30.27,10.0,ESE,3.5,-,N/A,,Clear,120,2013-02-18 10:51:00
6:51 AM,15.1,10.0,80,30.27,10.0,East,3.5,-,N/A,,Clear,90,2013-02-18 11:51:00
7:51 AM,17.6,10.4,73,30.23,10.0,East,4.6,-,N/A,,Clear,90,2013-02-18 12:51:00
8:51 AM,23.0,12.9,65,30.25,10.0,East,5.8,-,N/A,,Clear,100,2013-02-18 13:51:00
9:51 AM,32.0,17.1,54,30.23,10.0,ESE,3.5,-,N/A,,Clear,110,2013-02-18 14:51:00
10:51 AM,41.0,19.0,41,30.20,10.0,Variable,4.6,-,N/A,,Mostly Cloudy,0,2013-02-18 15:51:00
11:51 AM,46.9,21.0,36,30.17,10.0,South,11.5,19.6,N/A,,Clear,190,2013-02-18 16:51:00
12:51 PM,51.1,25.0,36,30.13,10.0,South,11.5,23.0,N/A,,Clear,190,2013-02-18 17:51:00
1:51 PM,54.0,28.0,37,30.09,10.0,South,11.5,20.7,N/A,,Clear,180,2013-02-18 18:51:00
2:51 PM,55.9,30.0,37,30.07,10.0,South,11.5,19.6,N/A,,Clear,180,2013-02-18 19:51:00
3:51 PM,57.0,30.0,36,30.05,10.0,South,9.2,-,N/A,,Clear,180,2013-02-18 20:51:00
4:51 PM,57.9,30.0,35,30.03,10.0,SSW,12.7,20.7,N/A,,Clear,200,2013-02-18 21:51:00
5:51 PM,55.0,28.9,37,30.01,10.0,South,8.1,-,N/A,,Clear,170,2013-02-18 22:51:00
6:51 PM,53.1,28.0,38,29.98,10.0,SSE,5.8,-,N/A,,Clear,160,2013-02-18 23:51:00
7:51 PM,52.0,26.1,37,29.98,10.0,South,9.2,-,N/A,,Clear,170,2013-02-19 00:51:00
8:51 PM,51.1,26.1,38,29.95,10.0,South,8.1,-,N/A,,Clear,170,2013-02-19 01:51:00
9:51 PM,50.0,26.1,39,29.91,10.0,SSE,8.1,-,N/A,,Clear,160,2013-02-19 02:51:00
10:51 PM,51.1,26.1,38,29.87,10.0,SSE,10.4,-,N/A,,Clear,160,2013-02-19 03:51:00
11:51 PM,51.1,25.0,36,29.83,10.0,South,11.5,19.6,N/A,,Partly Cloudy,170,2013-02-19 04:51:00